Flag Weather past 2 weeks in Freiburg, Baden-Württemberg, Germany

Now
44 °F

Clear.


Feels Like: 44 °F
Forecast: 45 / 66 °F
Wind: No wind

Location: Freiburg

Current Time: Oct 31, 2014 at 12:28:14 AM

Latest Report: Oct 30, 2014 at 11:00 PM


Visibility: 6 mi

Pressure: 30.32 "Hg

Humidity: 95%

Dew point: 43 °F

Location of FreiburgLocation

Historic Weather in Freiburg — Graph

°F

Freiburg temperature yesterday

Maximum temperature yesterday: 64 °F (at 3:00 PM)
Minimum temperature yesterday: 44 °F (at 11:00 PM)
Average temperature yesterday: 53 °F

Past Weeks' High & Low Weather Summary

 TemperatureHumidityPressure
High75 °F (Oct 19, 3:00 PM)100% (Oct 18, 1:00 AM)30.33 "Hg (Oct 18, 1:00 AM)
Low35 °F (Oct 24, 7:00 AM)46% (Oct 19, 3:00 PM)29.73 "Hg (Oct 21, 6:00 PM)
Average53 °F83%30.14 "Hg
* Reported Midnight between Oct 15 and Oct 16 — Oct 30 11:00 PM, Freiburg, Weather by CustomWeather, © 2014

Note: Actual official high and low records may vary slightly from our data, if they occured in-between our weather recording intervals... More about our weather records

Advertising

Freiburg weather history for previous 24 hours

 ConditionsComfort  
Time TempWeatherWind HumidityBarometerVisibility
11:00 PM
Oct 30
44 °FClear.No wind95%30.32 "Hg6 mi
9:00 PM49 °FFog.1 mph98%30.30 "Hg4 mi
8:00 PM50 °FPassing clouds.1 mph97%30.29 "Hg9 mi
6:00 PM53 °FPassing clouds.1 mph89%30.29 "Hg12 mi
5:00 PM59 °FClear.1 mph68%30.25 "Hg25 mi
3:00 PM64 °FPassing clouds.1 mph56%30.24 "Hg19 mi
2:00 PM62 °FPassing clouds.1 mph60%30.25 "Hg19 mi
12:00 PM58 °FOvercast.2 mph79%30.27 "Hg14 mi
11:00 AM55 °FOvercast.1 mph85%30.27 "Hg11 mi
9:00 AM52 °FOvercast.1 mph93%30.26 "Hg9 mi
8:00 AM51 °FOvercast.1 mph97%30.26 "Hg6 mi
6:00 AM50 °FFog.1 mph97%30.22 "Hg3 mi
5:00 AM50 °FFog.1 mph97%30.21 "Hg3 mi
3:00 AM50 °FOvercast.1 mph97%30.21 "Hg5 mi
2:00 AM49 °FOvercast.1 mph97%30.21 "Hg5 mi
12:00 AM48 °FLight rain. Overcast.2 mph97%30.20 "Hg3 mi
Weather by CustomWeather, © 2014

See weather overviewHow to use our weather pages